Time,TemperatureF,DewpointF,PressureIn,WindDirection,WindDirectionDegrees,WindSpeedMPH,WindSpeedGustMPH,Humidity,HourlyPrecipIn,Conditions,Clouds,dailyrainin,SoftwareType,DateUTC
2013-07-27 01:34:00,66.4,54.7,29.94,SW,223,6.0,6.0,66,0.00,CLR,,0.00,WeatherDisplay:10.37,2013-07-27 05:34:00,
2013-07-27 01:35:00,66.4,54.7,29.94,SW,223,6.0,6.0,66,0.00,CLR,,0.00,WeatherDisplay:10.37,2013-07-27 05:35:00,
2013-07-27 01:40:00,66.3,54.6,29.94,South,186,5.0,5.0,66,0.00,CLR,,0.00,WeatherDisplay:10.37,2013-07-27 05:40:00,
2013-07-27 01:45:00,66.2,54.5,29.94,SW,217,3.5,3.5,66,0.00,CLR,,0.00,WeatherDisplay:10.37,2013-07-27 05:45:00,
2013-07-27 01:50:00,66.2,54.5,29.94,SSW,198,3.5,3.5,66,0.00,CLR,,0.00,WeatherDisplay:10.37,2013-07-27 05:50:00,
2013-07-27 01:55:00,66.3,54.6,29.94,SSW,207,3.5,3.5,66,0.00,CLR,,0.00,WeatherDisplay:10.37,2013-07-27 05:55:00,
2013-07-27 02:00:00,66.4,54.7,29.94,SW,215,3.5,3.5,66,0.00,CLR,,0.00,WeatherDisplay:10.37,2013-07-27 06:00:00,
2013-07-27 02:05:00,66.5,54.8,29.94,SSW,207,3.0,3.0,66,0.00,CLR,,0.00,WeatherDisplay:10.37,2013-07-27 06:05:00,
2013-07-27 02:10:00,66.7,54.6,29.93,SSW,200,3.5,3.5,65,0.00,CLR,,0.00,WeatherDisplay:10.37,2013-07-27 06:10:00,
2013-07-27 02:15:00,66.7,54.6,29.93,SSW,200,2.3,2.3,65,0.00,CLR,,0.00,WeatherDisplay:10.37,2013-07-27 06:15:00,
2013-07-27 02:20:00,66.8,54.7,29.93,SSW,196,2.3,2.3,65,0.00,CLR,,0.00,WeatherDisplay:10.37,2013-07-27 06:20:00,
2013-07-27 02:25:00,66.8,54.7,29.93,SSW,206,4.0,4.0,65,0.00,CLR,,0.00,WeatherDisplay:10.37,2013-07-27 06:25:00,
2013-07-27 02:30:00,66.8,54.2,29.93,SSW,207,3.5,3.5,64,0.00,CLR,,0.00,WeatherDisplay:10.37,2013-07-27 06:30:00,
2013-07-27 02:35:00,66.8,54.7,29.92,SSW,210,1.2,1.2,65,0.00,CLR,,0.00,WeatherDisplay:10.37,2013-07-27 06:35:00,
2013-07-27 02:40:00,66.8,54.2,29.92,SSW,210,1.2,1.2,64,0.00,CLR,,0.00,WeatherDisplay:10.37,2013-07-27 06:40:00,
2013-07-27 02:45:00,66.7,54.1,29.92,SSW,210,2.0,2.0,64,0.00,CLR,,0.00,WeatherDisplay:10.37,2013-07-27 06:45:00,
2013-07-27 02:50:00,66.5,54.4,29.92,SSW,198,2.3,2.3,65,0.00,CLR,,0.00,WeatherDisplay:10.37,2013-07-27 06:50:00,
2013-07-27 02:55:00,66.6,54.5,29.92,SSW,205,3.5,3.5,65,0.00,CLR,,0.00,WeatherDisplay:10.37,2013-07-27 06:55:00,
2013-07-27 03:00:00,66.7,54.6,29.92,SSW,207,4.0,4.0,65,0.00,CLR,,0.00,WeatherDisplay:10.37,2013-07-27 07:00:00,
2013-07-27 03:05:00,66.4,54.7,29.92,SSW,201,2.3,2.3,66,0.00,CLR,,0.00,WeatherDisplay:10.37,2013-07-27 07:05:00,
2013-07-27 03:10:00,66.3,54.6,29.92,SSW,197,4.0,4.0,66,0.00,CLR,,0.00,WeatherDisplay:10.37,2013-07-27 07:10:00,
2013-07-27 03:15:00,66.2,54.5,29.92,SSW,207,5.0,5.0,66,0.00,CLR,,0.00,WeatherDisplay:10.37,2013-07-27 07:15:00,
2013-07-27 03:20:00,66.4,54.7,29.91,SW,225,3.5,3.5,66,0.00,CLR,,0.00,WeatherDisplay:10.37,2013-07-27 07:20:00,
2013-07-27 03:25:00,66.4,54.7,29.91,SW,221,1.2,1.2,66,0.00,CLR,,0.00,WeatherDisplay:10.37,2013-07-27 07:25:00,
2013-07-27 03:30:00,66.3,54.6,29.91,SSW,198,0.0,0.0,66,0.00,CLR,,0.00,WeatherDisplay:10.37,2013-07-27 07:30:00,
2013-07-27 03:35:00,65.8,54.5,29.90,SSW,198,0.0,0.0,67,0.00,CLR,,0.00,WeatherDisplay:10.37,2013-07-27 07:35:00,
2013-07-27 03:40:00,65.9,54.6,29.90,WSW,242,1.2,1.2,67,0.00,CLR,,0.00,WeatherDisplay:10.37,2013-07-27 07:40:00,
2013-07-27 03:45:00,66.0,54.7,29.90,WSW,238,0.0,0.0,67,0.00,CLR,,0.00,WeatherDisplay:10.37,2013-07-27 07:45:00,
2013-07-27 03:50:00,65.9,54.6,29.90,SW,223,0.0,0.0,67,0.00,CLR,,0.00,WeatherDisplay:10.37,2013-07-27 07:50:00,
2013-07-27 03:55:00,65.6,54.8,29.90,SSW,206,0.0,0.0,68,0.00,CLR,,0.00,WeatherDisplay:10.37,2013-07-27 07:55:00,
2013-07-27 04:00:00,65.2,54.8,29.90,South,182,1.2,0.0,69,0.00,CLR,,0.00,WeatherDisplay:10.37,2013-07-27 08:00:00,
2013-07-27 04:05:00,64.9,55.3,29.90,SSW,194,1.2,0.0,71,0.00,CLR,,0.00,WeatherDisplay:10.37,2013-07-27 08:05:00,
2013-07-27 04:10:00,64.4,55.6,29.90,South,179,0.0,0.0,73,0.00,CLR,,0.00,WeatherDisplay:10.37,2013-07-27 08:10:00,
2013-07-27 04:15:00,64.1,55.3,29.90,South,184,0.0,0.0,73,0.00,CLR,,0.00,WeatherDisplay:10.37,2013-07-27 08:15:00,
2013-07-27 04:20:00,64.0,55.5,29.90,SSW,207,1.2,1.2,74,0.00,CLR,,0.00,WeatherDisplay:10.37,2013-07-27 08:20:00,
2013-07-27 04:25:00,64.0,55.5,29.90,South,180,4.0,4.0,74,0.00,CLR,,0.00,WeatherDisplay:10.37,2013-07-27 08:25:00,
2013-07-27 04:30:00,64.1,55.6,29.90,South,179,4.0,4.0,74,0.00,CLR,,0.00,WeatherDisplay:10.37,2013-07-27 08:30:00,
2013-07-27 04:35:00,63.9,55.4,29.90,South,191,4.0,4.0,74,0.00,CLR,,0.00,WeatherDisplay:10.37,2013-07-27 08:35:00,
2013-07-27 04:40:00,63.7,55.6,29.90,SSW,196,7.0,7.0,75,0.00,CLR,,0.00,WeatherDisplay:10.37,2013-07-27 08:40:00,
2013-07-27 04:45:00,63.6,55.9,29.90,South,178,6.0,6.0,76,0.00,CLR,,0.00,WeatherDisplay:10.37,2013-07-27 08:45:00,
2013-07-27 04:50:00,63.4,56.1,29.89,SSW,195,4.0,4.0,77,0.00,CLR,,0.00,WeatherDisplay:10.37,2013-07-27 08:50:00,
2013-07-27 04:55:00,63.4,56.1,29.89,South,181,10.4,10.4,77,0.00,CLR,,0.00,WeatherDisplay:10.37,2013-07-27 08:55:00,
2013-07-27 05:00:00,63.6,55.9,29.89,South,174,11.0,11.0,76,0.00,CLR,,0.00,WeatherDisplay:10.37,2013-07-27 09:00:00,
2013-07-27 05:05:00,64.0,55.9,29.89,SSW,196,10.4,10.4,75,0.00,CLR,,0.00,WeatherDisplay:10.37,2013-07-27 09:05:00,
2013-07-27 05:10:00,64.2,55.7,29.89,SW,217,8.1,8.1,74,0.00,CLR,,0.00,WeatherDisplay:10.37,2013-07-27 09:10:00,
2013-07-27 05:15:00,64.5,55.7,29.89,SSW,205,9.2,9.2,73,0.00,CLR,,0.00,WeatherDisplay:10.37,2013-07-27 09:15:00,
2013-07-27 05:20:00,64.3,55.8,29.89,SW,219,6.0,6.0,74,0.00,CLR,,0.00,WeatherDisplay:10.37,2013-07-27 09:20:00,
2013-07-27 05:25:00,64.1,55.6,29.89,South,190,6.9,6.9,74,0.00,CLR,,0.00,WeatherDisplay:10.37,2013-07-27 09:25:00,
2013-07-27 05:30:00,63.8,55.7,29.89,SSW,205,4.0,4.0,75,0.00,CLR,,0.00,WeatherDisplay:10.37,2013-07-27 09:30:00,
2013-07-27 05:35:00,63.4,55.7,29.89,SSW,213,3.0,3.0,76,0.00,CLR,,0.00,WeatherDisplay:10.37,2013-07-27 09:35:00,
2013-07-27 05:40:00,63.1,55.4,29.90,SSW,211,4.0,4.0,76,0.00,CLR,,0.00,WeatherDisplay:10.37,2013-07-27 09:40:00,
2013-07-27 05:45:00,62.9,55.2,29.90,SSW,205,3.5,3.5,76,0.00,CLR,,0.00,WeatherDisplay:10.37,2013-07-27 09:45:00,
2013-07-27 05:50:00,62.7,55.4,29.90,SSW,205,3.5,3.5,77,0.00,CLR,,0.00,WeatherDisplay:10.37,2013-07-27 09:50:00,
2013-07-27 05:55:00,62.8,55.1,29.90,SSW,211,3.5,3.5,76,0.00,CLR,,0.00,WeatherDisplay:10.37,2013-07-27 09:55:00,
2013-07-27 06:00:00,63.0,54.9,29.90,SSW,204,3.5,3.5,75,0.00,CLR,,0.00,WeatherDisplay:10.37,2013-07-27 10:00:00,
2013-07-27 06:05:00,63.2,55.1,29.90,SSW,204,4.0,4.0,75,0.00,CLR,,0.00,WeatherDisplay:10.37,2013-07-27 10:05:00,
2013-07-27 06:10:00,63.6,54.8,29.90,SW,220,3.5,3.5,73,0.00,CLR,,0.00,WeatherDisplay:10.37,2013-07-27 10:10:00,
2013-07-27 06:15:00,63.7,54.9,29.90,SSW,213,3.5,3.5,73,0.00,CLR,,0.00,WeatherDisplay:10.37,2013-07-27 10:15:00,
2013-07-27 06:20:00,63.8,55.0,29.90,SSW,209,4.0,4.0,73,0.00,CLR,,0.00,WeatherDisplay:10.37,2013-07-27 10:20:00,
2013-07-27 06:25:00,63.9,54.7,29.90,SSW,211,2.3,2.3,72,0.00,CLR,,0.00,WeatherDisplay:10.37,2013-07-27 10:25:00,
2013-07-27 06:30:00,64.1,54.9,29.90,SSW,211,2.3,2.3,72,0.00,CLR,,0.00,WeatherDisplay:10.37,2013-07-27 10:30:00,
2013-07-27 06:35:00,64.0,54.8,29.90,SSW,213,1.0,0.0,72,0.00,CLR,,0.00,WeatherDisplay:10.37,2013-07-27 10:35:00,
2013-07-27 06:40:00,63.9,55.1,29.90,SSW,209,2.0,2.0,73,0.00,CLR,,0.00,WeatherDisplay:10.37,2013-07-27 10:40:00,
2013-07-27 06:45:00,64.0,55.2,29.90,SSW,210,4.0,4.0,73,0.00,CLR,,0.00,WeatherDisplay:10.37,2013-07-27 10:45:00,
2013-07-27 06:50:00,64.1,55.3,29.90,SSW,205,3.5,3.5,73,0.00,CLR,,0.00,WeatherDisplay:10.37,2013-07-27 10:50:00,
2013-07-27 06:55:00,64.0,55.2,29.90,SW,230,3.0,3.0,73,0.00,CLR,,0.00,WeatherDisplay:10.37,2013-07-27 10:55:00,
2013-07-27 07:00:00,63.9,55.4,29.90,SSW,209,5.0,5.0,74,0.00,CLR,,0.00,WeatherDisplay:10.37,2013-07-27 11:00:00,
2013-07-27 07:05:00,63.9,55.4,29.90,SSW,200,3.5,3.5,74,0.00,CLR,,0.00,WeatherDisplay:10.37,2013-07-27 11:05:00,
2013-07-27 07:10:00,63.8,55.7,29.90,SSW,211,5.0,5.0,75,0.00,CLR,,0.00,WeatherDisplay:10.37,2013-07-27 11:10:00,
2013-07-27 07:15:00,63.8,55.7,29.90,SSW,203,5.0,5.0,75,0.00,CLR,,0.00,WeatherDisplay:10.37,2013-07-27 11:15:00,
2013-07-27 07:20:00,63.8,56.1,29.90,SW,230,4.6,4.6,76,0.00,CLR,,0.00,WeatherDisplay:10.37,2013-07-27 11:20:00,
2013-07-27 07:25:00,63.8,56.1,29.90,SW,227,4.0,4.0,76,0.00,CLR,,0.00,WeatherDisplay:10.37,2013-07-27 11:25:00,
2013-07-27 07:30:00,63.8,56.4,29.90,WSW,241,3.5,3.5,77,0.00,CLR,,0.00,WeatherDisplay:10.37,2013-07-27 11:30:00,
2013-07-27 07:35:00,63.8,56.4,29.90,SSW,205,5.0,5.0,77,0.00,CLR,,0.00,WeatherDisplay:10.37,2013-07-27 11:35:00,
2013-07-27 07:40:00,63.8,56.8,29.90,SW,229,3.5,3.5,78,0.00,CLR,,0.00,WeatherDisplay:10.37,2013-07-27 11:40:00,
2013-07-27 07:45:00,63.8,56.8,29.90,SW,216,3.5,3.5,78,0.00,CLR,,0.00,WeatherDisplay:10.37,2013-07-27 11:45:00,
2013-07-27 07:50:00,63.9,56.9,29.91,SSW,206,4.0,4.0,78,0.00,CLR,,0.00,WeatherDisplay:10.37,2013-07-27 11:50:00,
2013-07-27 07:55:00,64.0,57.0,29.91,SW,223,5.0,5.0,78,0.00,CLR,,0.00,WeatherDisplay:10.37,2013-07-27 11:55:00,
2013-07-27 08:00:00,64.3,57.3,29.90,SSW,211,4.0,4.0,78,0.00,CLR,,0.00,WeatherDisplay:10.37,2013-07-27 12:00:00,
2013-07-27 08:05:00,64.6,57.6,29.91,SW,217,4.0,4.0,78,0.00,CLR,,0.00,WeatherDisplay:10.37,2013-07-27 12:05:00,
2013-07-27 08:10:00,64.9,57.9,29.90,SW,225,4.0,4.0,78,0.00,CLR,,0.00,WeatherDisplay:10.37,2013-07-27 12:10:00,
2013-07-27 08:15:00,65.3,58.3,29.91,SW,219,6.0,6.0,78,0.00,CLR,,0.00,WeatherDisplay:10.37,2013-07-27 12:15:00,
2013-07-27 08:20:00,65.4,58.4,29.90,SW,226,5.0,5.0,78,0.00,CLR,,0.00,WeatherDisplay:10.37,2013-07-27 12:20:00,
2013-07-27 08:25:00,65.6,58.6,29.90,SSW,201,4.0,4.0,78,0.00,CLR,,0.00,WeatherDisplay:10.37,2013-07-27 12:25:00,
2013-07-27 08:30:00,65.7,58.3,29.90,SSW,192,4.6,4.6,77,0.00,CLR,,0.00,WeatherDisplay:10.37,2013-07-27 12:30:00,
2013-07-27 08:35:00,66.0,58.9,29.90,SW,221,4.0,4.0,78,0.00,CLR,,0.00,WeatherDisplay:10.37,2013-07-27 12:35:00,
2013-07-27 08:36:00,66.1,59.0,29.90,WSW,238,4.0,4.0,78,0.00,CLR,,0.00,WeatherDisplay:10.37,2013-07-27 12:36:00,
2013-07-27 08:41:00,66.3,59.2,29.90,SW,234,5.0,5.0,78,0.00,CLR,,0.00,WeatherDisplay:10.37,2013-07-27 12:41:00,
2013-07-27 08:46:00,66.3,59.2,29.90,SSW,199,3.5,3.5,78,0.00,CLR,,0.00,WeatherDisplay:10.37,2013-07-27 12:46:00,
2013-07-27 08:51:00,66.2,59.1,29.90,SSW,210,4.0,4.0,78,0.00,CLR,,0.00,WeatherDisplay:10.37,2013-07-27 12:51:00,
2013-07-27 08:56:00,66.2,59.1,29.90,SSW,210,4.0,4.0,78,0.00,CLR,,0.00,WeatherDisplay:10.37,2013-07-27 12:56:00,
2013-07-27 09:01:00,66.0,58.9,29.91,SSW,194,5.0,5.0,78,0.00,CLR,,0.00,WeatherDisplay:10.37,2013-07-27 13:01:00,
2013-07-27 09:06:00,65.8,58.7,29.91,SSW,194,5.0,5.0,78,0.00,CLR,,0.00,WeatherDisplay:10.37,2013-07-27 13:06:00,
2013-07-27 09:11:00,65.7,59.0,29.91,South,187,1.2,0.0,79,0.00,CLR,,0.00,WeatherDisplay:10.37,2013-07-27 13:11:00,
2013-07-27 09:16:00,65.8,59.1,29.91,WSW,240,1.2,1.2,79,0.00,CLR,,0.00,WeatherDisplay:10.37,2013-07-27 13:16:00,
2013-07-27 09:21:00,66.1,59.7,29.91,SW,232,2.3,2.3,80,0.00,CLR,,0.00,WeatherDisplay:10.37,2013-07-27 13:21:00,
2013-07-27 09:26:00,66.2,59.5,29.90,SSW,205,3.5,3.5,79,0.00,CLR,,0.00,WeatherDisplay:10.37,2013-07-27 13:26:00,
2013-07-27 09:28:00,66.2,59.8,29.90,SSW,195,4.0,4.0,80,0.00,CLR,,0.00,WeatherDisplay:10.37,2013-07-27 13:28:00,
2013-07-27 09:33:00,66.3,59.9,29.90,South,174,4.0,4.0,80,0.00,CLR,,0.00,WeatherDisplay:10.37,2013-07-27 13:33:00,
2013-07-27 09:38:00,66.4,60.0,29.90,SSW,195,5.0,5.0,80,0.00,CLR,,0.00,WeatherDisplay:10.37,2013-07-27 13:38:00,
2013-07-27 09:43:00,66.3,59.9,29.90,South,186,9.0,9.0,80,0.00,CLR,,0.00,WeatherDisplay:10.37,2013-07-27 13:43:00,
2013-07-27 09:48:00,66.0,59.7,29.91,SW,232,6.0,6.0,80,0.00,CLR,,0.00,WeatherDisplay:10.37,2013-07-27 13:48:00,
2013-07-27 09:53:00,65.8,59.8,29.91,SW,232,6.0,6.0,81,0.00,CLR,,0.00,WeatherDisplay:10.37,2013-07-27 13:53:00,
2013-07-27 09:58:00,65.6,60.0,29.92,SW,236,7.0,7.0,82,0.02,RA,,0.02,WeatherDisplay:10.37,2013-07-27 13:58:00,
2013-07-27 10:03:00,65.4,60.1,29.91,SW,215,7.0,7.0,83,0.06,RA,,0.07,WeatherDisplay:10.37,2013-07-27 14:03:00,
2013-07-27 10:08:00,65.1,59.8,29.91,SW,227,3.5,3.5,83,0.08,RA,,0.08,WeatherDisplay:10.37,2013-07-27 14:08:00,
2013-07-27 10:13:00,65.0,60.0,29.90,WSW,240,3.5,0.0,84,0.08,RA,,0.08,WeatherDisplay:10.37,2013-07-27 14:13:00,
2013-07-27 10:18:00,65.2,60.2,29.91,SSW,203,4.0,4.0,84,0.08,CLR,,0.08,WeatherDisplay:10.37,2013-07-27 14:18:00,
2013-07-27 10:23:00,65.2,60.2,29.91,SSW,211,5.0,5.0,84,0.08,CLR,,0.08,WeatherDisplay:10.37,2013-07-27 14:23:00,
2013-07-27 10:28:00,65.3,60.7,29.91,SSW,200,8.1,8.1,85,0.08,CLR,,0.08,WeatherDisplay:10.37,2013-07-27 14:28:00,
2013-07-27 10:33:00,65.0,60.4,29.90,South,187,9.2,9.2,85,0.08,CLR,,0.09,WeatherDisplay:10.37,2013-07-27 14:33:00,
2013-07-27 10:38:00,65.0,60.4,29.89,SSW,200,5.0,5.0,85,0.09,RA,,0.09,WeatherDisplay:10.37,2013-07-27 14:38:00,
2013-07-27 10:43:00,65.0,60.4,29.90,SSW,196,8.1,8.1,85,0.10,RA,,0.10,WeatherDisplay:10.37,2013-07-27 14:43:00,
2013-07-27 10:48:00,65.0,60.4,29.90,South,175,5.0,5.0,85,0.11,RA,,0.11,WeatherDisplay:10.37,2013-07-27 14:48:00,
2013-07-27 10:53:00,65.0,60.4,29.90,SSW,199,6.0,6.0,85,0.12,RA,,0.12,WeatherDisplay:10.37,2013-07-27 14:53:00,
2013-07-27 10:58:00,65.2,60.6,29.90,SSW,200,4.0,4.0,85,0.10,RA,,0.12,WeatherDisplay:10.37,2013-07-27 14:58:00,
2013-07-27 11:03:00,65.2,60.6,29.89,SSW,200,3.5,3.5,85,0.06,CLR,,0.12,WeatherDisplay:10.37,2013-07-27 15:03:00,
2013-07-27 11:08:00,65.4,60.8,29.89,SW,215,0.0,0.0,85,0.05,RA,,0.13,WeatherDisplay:10.37,2013-07-27 15:08:00,
2013-07-27 11:13:00,65.6,61.3,29.89,SW,233,1.0,1.0,86,0.05,RA,,0.13,WeatherDisplay:10.37,2013-07-27 15:13:00,
2013-07-27 11:18:00,65.6,61.3,29.90,SW,217,3.5,3.5,86,0.05,CLR,,0.13,WeatherDisplay:10.37,2013-07-27 15:18:00,
2013-07-27 11:23:00,65.6,61.3,29.90,SW,225,1.0,0.0,86,0.05,CLR,,0.14,WeatherDisplay:10.37,2013-07-27 15:23:00,
2013-07-27 11:28:00,65.6,61.3,29.90,SW,217,3.5,3.5,86,0.07,RA,,0.15,WeatherDisplay:10.37,2013-07-27 15:28:00,
2013-07-27 11:33:00,65.1,60.8,29.90,SW,225,0.0,0.0,86,0.20,RA,,0.29,WeatherDisplay:10.37,2013-07-27 15:33:00,
2013-07-27 11:38:00,65.0,60.7,29.91,SW,217,5.0,5.0,86,0.26,RA,,0.36,WeatherDisplay:10.37,2013-07-27 15:38:00,
2013-07-27 11:43:00,64.8,60.5,29.91,SW,227,4.0,4.0,86,0.30,RA,,0.40,WeatherDisplay:10.37,2013-07-27 15:43:00,
2013-07-27 11:48:00,64.7,60.4,29.90,South,184,1.2,0.0,86,0.32,RA,,0.43,WeatherDisplay:10.37,2013-07-27 15:48:00,
2013-07-27 11:53:00,64.7,60.4,29.90,South,184,0.0,0.0,86,0.33,RA,,0.45,WeatherDisplay:10.37,2013-07-27 15:53:00,
2013-07-27 11:58:00,64.7,60.4,29.90,South,184,0.0,0.0,86,0.35,RA,,0.49,WeatherDisplay:10.37,2013-07-27 15:58:00,
2013-07-27 12:03:00,64.6,60.6,29.89,South,183,0.0,0.0,87,0.39,RA,,0.51,WeatherDisplay:10.37,2013-07-27 16:03:00,
2013-07-27 12:08:00,64.7,60.7,29.90,SW,234,4.0,4.0,87,0.38,RA,,0.51,WeatherDisplay:10.37,2013-07-27 16:08:00,
2013-07-27 12:13:00,64.7,60.7,29.89,SSW,202,4.0,4.0,87,0.38,CLR,,0.51,WeatherDisplay:10.37,2013-07-27 16:13:00,
2013-07-27 12:18:00,64.9,60.9,29.89,South,186,1.2,1.2,87,0.38,CLR,,0.51,WeatherDisplay:10.37,2013-07-27 16:18:00,
2013-07-27 12:23:00,65.0,61.0,29.89,SSE,163,1.2,1.2,87,0.38,CLR,,0.51,WeatherDisplay:10.37,2013-07-27 16:23:00,
2013-07-27 12:28:00,65.1,61.1,29.89,ESE,113,2.3,2.3,87,0.37,RA,,0.52,WeatherDisplay:10.37,2013-07-27 16:28:00,
2013-07-27 12:33:00,65.2,61.2,29.89,SSW,194,4.0,4.0,87,0.29,RA,,0.52,WeatherDisplay:10.37,2013-07-27 16:33:00,
2013-07-27 12:38:00,65.3,61.3,29.89,SSW,200,1.2,1.2,87,0.16,,,0.52,WeatherDisplay:10.37,2013-07-27 16:38:00,
2013-07-27 12:43:00,65.5,61.5,29.89,SSW,198,3.5,3.5,87,0.14,CLR,,0.52,WeatherDisplay:10.37,2013-07-27 16:43:00,
2013-07-27 12:48:00,65.5,61.5,29.89,SSW,203,1.2,0.0,87,0.09,CLR,,0.52,WeatherDisplay:10.37,2013-07-27 16:48:00,
2013-07-27 12:53:00,65.5,61.5,29.89,SSW,203,4.0,4.0,87,0.07,CLR,,0.52,WeatherDisplay:10.37,2013-07-27 16:53:00,
2013-07-27 12:58:00,65.4,61.4,29.89,SSW,200,3.5,3.5,87,0.06,RA,,0.53,WeatherDisplay:10.37,2013-07-27 16:58:00,
2013-07-27 13:03:00,65.4,61.4,29.88,SSW,195,3.5,3.5,87,0.02,RA,,0.53,WeatherDisplay:10.37,2013-07-27 17:03:00,
2013-07-27 13:08:00,65.3,61.3,29.88,South,188,1.2,0.0,87,0.02,,,0.53,WeatherDisplay:10.37,2013-07-27 17:08:00,
2013-07-27 13:13:00,65.9,62.2,29.87,South,171,0.0,0.0,88,0.02,CLR,,0.53,WeatherDisplay:10.37,2013-07-27 17:13:00,
2013-07-27 13:18:00,67.1,63.4,29.87,ESE,103,7.0,7.0,88,0.02,CLR,,0.53,WeatherDisplay:10.37,2013-07-27 17:18:00,
2013-07-27 13:23:00,67.6,63.9,29.87,SW,216,0.0,0.0,88,0.02,CLR,,0.53,WeatherDisplay:10.37,2013-07-27 17:23:00,
2013-07-27 13:28:00,67.9,64.2,29.87,SSW,207,4.0,4.0,88,0.01,CLR,,0.53,WeatherDisplay:10.37,2013-07-27 17:28:00,
2013-07-27 13:33:00,68.5,64.8,29.87,SW,220,4.0,4.0,88,0.01,CLR,,0.53,WeatherDisplay:10.37,2013-07-27 17:33:00,
2013-07-27 13:38:00,68.4,64.4,29.87,West,279,3.5,3.5,87,0.01,CLR,,0.53,WeatherDisplay:10.37,2013-07-27 17:38:00,
2013-07-27 13:43:00,69.3,65.3,29.87,SSW,210,5.0,5.0,87,0.01,CLR,,0.53,WeatherDisplay:10.37,2013-07-27 17:43:00,
2013-07-27 13:48:00,70.3,66.2,29.86,South,189,5.8,5.8,87,0.01,CLR,,0.53,WeatherDisplay:10.37,2013-07-27 17:48:00,
2013-07-27 13:53:00,71.1,66.7,29.87,South,190,7.0,7.0,86,0.01,CLR,,0.53,WeatherDisplay:10.37,2013-07-27 17:53:00,
2013-07-27 13:58:00,71.2,65.8,29.87,WSW,253,6.9,6.9,83,0.00,CLR,,0.53,WeatherDisplay:10.37,2013-07-27 17:58:00,
2013-07-27 14:03:00,70.7,64.9,29.87,South,187,7.0,7.0,82,0.00,CLR,,0.53,WeatherDisplay:10.37,2013-07-27 18:03:00,
2013-07-27 14:08:00,70.3,64.5,29.87,SE,146,1.2,0.0,82,0.00,CLR,,0.53,WeatherDisplay:10.37,2013-07-27 18:08:00,
2013-07-27 14:13:00,70.1,64.7,29.86,South,182,3.0,3.0,83,0.00,CLR,,0.53,WeatherDisplay:10.37,2013-07-27 18:13:00,
2013-07-27 14:18:00,70.9,65.8,29.86,SW,226,5.0,5.0,84,0.00,CLR,,0.53,WeatherDisplay:10.37,2013-07-27 18:18:00,
2013-07-27 14:23:00,72.2,66.7,29.85,SW,221,8.0,8.0,83,0.00,CLR,,0.53,WeatherDisplay:10.37,2013-07-27 18:23:00,
2013-07-27 14:28:00,72.5,66.7,29.85,SSW,202,7.0,7.0,82,0.00,CLR,,0.53,WeatherDisplay:10.37,2013-07-27 18:28:00,
2013-07-27 14:33:00,72.7,65.8,29.85,SSW,209,9.2,9.2,79,0.00,CLR,,0.53,WeatherDisplay:10.37,2013-07-27 18:33:00,
2013-07-27 14:38:00,72.5,65.6,29.85,SW,223,10.4,10.4,79,0.00,CLR,,0.53,WeatherDisplay:10.37,2013-07-27 18:38:00,
2013-07-27 14:43:00,72.6,65.7,29.85,SSW,205,9.0,9.0,79,0.00,CLR,,0.53,WeatherDisplay:10.37,2013-07-27 18:43:00,
2013-07-27 14:48:00,72.4,65.5,29.85,South,186,6.0,6.0,79,0.00,CLR,,0.53,WeatherDisplay:10.37,2013-07-27 18:48:00,
2013-07-27 14:53:00,72.4,65.9,29.85,SSW,203,8.1,8.1,80,0.00,CLR,,0.53,WeatherDisplay:10.37,2013-07-27 18:53:00,
2013-07-27 14:58:00,72.6,65.7,29.85,SSW,211,5.0,5.0,79,0.00,CLR,,0.53,WeatherDisplay:10.37,2013-07-27 18:58:00,
2013-07-27 15:03:00,72.6,65.3,29.85,SW,214,8.1,8.1,78,0.00,CLR,,0.53,WeatherDisplay:10.37,2013-07-27 19:03:00,
2013-07-27 15:08:00,72.5,65.6,29.85,ENE,58,6.9,6.9,79,0.00,CLR,,0.53,WeatherDisplay:10.37,2013-07-27 19:08:00,
2013-07-27 15:13:00,72.0,65.5,29.84,SSW,201,8.1,8.1,80,0.00,CLR,,0.53,WeatherDisplay:10.37,2013-07-27 19:13:00,
2013-07-27 15:18:00,72.4,65.5,29.84,SW,226,9.0,9.0,79,0.00,CLR,,0.53,WeatherDisplay:10.37,2013-07-27 19:18:00,
2013-07-27 15:23:00,72.6,65.7,29.84,SSW,212,8.1,8.1,79,0.00,CLR,,0.53,WeatherDisplay:10.37,2013-07-27 19:23:00,
2013-07-27 15:28:00,72.5,65.2,29.84,South,180,8.1,8.1,78,0.00,CLR,,0.53,WeatherDisplay:10.37,2013-07-27 19:28:00,
2013-07-27 15:33:00,72.6,65.7,29.84,SW,236,8.1,8.1,79,0.00,CLR,,0.53,WeatherDisplay:10.37,2013-07-27 19:33:00,
2013-07-27 15:38:00,72.8,66.3,29.83,SSW,203,9.2,9.2,80,0.00,CLR,,0.53,WeatherDisplay:10.37,2013-07-27 19:38:00,
2013-07-27 15:43:00,73.1,66.2,29.83,SSW,196,6.9,6.9,79,0.00,CLR,,0.53,WeatherDisplay:10.37,2013-07-27 19:43:00,
2013-07-27 15:48:00,73.7,66.8,29.83,SSW,212,16.0,16.0,79,0.00,CLR,,0.53,WeatherDisplay:10.37,2013-07-27 19:48:00,
2013-07-27 15:53:00,73.5,66.6,29.83,SSW,198,8.0,8.0,79,0.00,CLR,,0.53,WeatherDisplay:10.37,2013-07-27 19:53:00,
2013-07-27 15:58:00,73.2,66.3,29.83,SSW,207,10.4,10.4,79,0.00,CLR,,0.53,WeatherDisplay:10.37,2013-07-27 19:58:00,
2013-07-27 16:03:00,72.6,65.7,29.83,SSW,206,9.2,9.2,79,0.00,CLR,,0.53,WeatherDisplay:10.37,2013-07-27 20:03:00,
2013-07-27 16:08:00,72.8,66.3,29.83,South,185,13.0,13.0,80,0.00,CLR,,0.53,WeatherDisplay:10.37,2013-07-27 20:08:00,
2013-07-27 16:13:00,73.3,66.8,29.83,SSW,192,14.0,14.0,80,0.00,CLR,,0.53,WeatherDisplay:10.37,2013-07-27 20:13:00,
2013-07-27 16:18:00,72.6,65.3,29.83,SSW,203,11.5,11.5,78,0.00,CLR,,0.53,WeatherDisplay:10.37,2013-07-27 20:18:00,
2013-07-27 16:23:00,72.3,65.4,29.83,SSE,168,14.0,14.0,79,0.00,CLR,,0.53,WeatherDisplay:10.37,2013-07-27 20:23:00,
2013-07-27 16:28:00,72.6,65.7,29.83,SSW,213,9.2,9.2,79,0.00,CLR,,0.53,WeatherDisplay:10.37,2013-07-27 20:28:00,
2013-07-27 16:33:00,72.5,65.2,29.83,SW,232,8.1,8.1,78,0.00,CLR,,0.53,WeatherDisplay:10.37,2013-07-27 20:33:00,
2013-07-27 16:38:00,72.9,66.0,29.82,SSW,213,11.0,11.0,79,0.00,CLR,,0.53,WeatherDisplay:10.37,2013-07-27 20:38:00,
2013-07-27 16:43:00,72.8,65.2,29.82,SSW,198,12.7,12.7,77,0.00,CLR,,0.53,WeatherDisplay:10.37,2013-07-27 20:43:00,
2013-07-27 16:48:00,72.6,65.0,29.82,SSW,203,10.4,10.4,77,0.00,CLR,,0.53,WeatherDisplay:10.37,2013-07-27 20:48:00,
2013-07-27 16:53:00,72.1,64.5,29.81,SSW,193,12.7,12.7,77,0.00,CLR,,0.53,WeatherDisplay:10.37,2013-07-27 20:53:00,
2013-07-27 16:58:00,71.5,64.3,29.81,SSW,196,13.8,13.8,78,0.00,CLR,,0.53,WeatherDisplay:10.37,2013-07-27 20:58:00,
2013-07-27 17:03:00,71.3,64.1,29.81,SSW,199,13.8,13.8,78,0.00,CLR,,0.53,WeatherDisplay:10.37,2013-07-27 21:03:00,
2013-07-27 17:08:00,71.1,64.3,29.81,SSW,202,8.1,8.1,79,0.00,CLR,,0.53,WeatherDisplay:10.37,2013-07-27 21:08:00,
2013-07-27 17:13:00,71.0,64.2,29.81,WSW,239,14.0,14.0,79,0.00,CLR,,0.53,WeatherDisplay:10.37,2013-07-27 21:13:00,
2013-07-27 17:18:00,70.8,64.3,29.81,South,188,9.0,9.0,80,0.00,CLR,,0.53,WeatherDisplay:10.37,2013-07-27 21:18:00,
2013-07-27 17:23:00,70.6,64.1,29.80,SSW,203,9.2,9.2,80,0.00,CLR,,0.53,WeatherDisplay:10.37,2013-07-27 21:23:00,
2013-07-27 17:28:00,70.4,64.3,29.81,SSW,208,10.4,10.4,81,0.00,CLR,,0.53,WeatherDisplay:10.37,2013-07-27 21:28:00,
2013-07-27 17:33:00,70.2,64.1,29.81,SSW,209,9.2,9.2,81,0.00,CLR,,0.53,WeatherDisplay:10.37,2013-07-27 21:33:00,
2013-07-27 17:38:00,70.1,64.3,29.81,SSW,204,6.0,6.0,82,0.00,CLR,,0.53,WeatherDisplay:10.37,2013-07-27 21:38:00,
2013-07-27 17:43:00,69.9,64.2,29.80,SSW,199,7.0,7.0,82,0.00,CLR,,0.53,WeatherDisplay:10.37,2013-07-27 21:43:00,
2013-07-27 17:48:00,69.7,64.0,29.81,South,179,8.1,8.1,82,0.00,CLR,,0.53,WeatherDisplay:10.37,2013-07-27 21:48:00,
2013-07-27 17:53:00,69.9,64.5,29.80,SSW,199,6.0,6.0,83,0.00,CLR,,0.53,WeatherDisplay:10.37,2013-07-27 21:53:00,
2013-07-27 17:58:00,70.1,64.7,29.81,SSW,209,9.0,9.0,83,0.00,CLR,,0.53,WeatherDisplay:10.37,2013-07-27 21:58:00,
2013-07-27 18:03:00,70.3,64.9,29.81,WSW,256,4.6,4.6,83,0.00,CLR,,0.53,WeatherDisplay:10.37,2013-07-27 22:03:00,
2013-07-27 18:08:00,70.7,65.3,29.81,WSW,240,10.0,10.0,83,0.00,CLR,,0.53,WeatherDisplay:10.37,2013-07-27 22:08:00,
2013-07-27 18:13:00,70.8,65.0,29.81,SSW,201,7.0,7.0,82,0.00,CLR,,0.53,WeatherDisplay:10.37,2013-07-27 22:13:00,
2013-07-27 18:18:00,70.9,65.1,29.81,South,186,16.1,16.1,82,0.00,CLR,,0.53,WeatherDisplay:10.37,2013-07-27 22:18:00,
2013-07-27 18:23:00,70.6,64.5,29.80,WSW,238,10.4,10.4,81,0.00,CLR,,0.53,WeatherDisplay:10.37,2013-07-27 22:23:00,
2013-07-27 18:28:00,70.4,64.3,29.80,South,186,10.4,10.4,81,0.00,CLR,,0.53,WeatherDisplay:10.37,2013-07-27 22:28:00,
2013-07-27 18:33:00,70.6,64.8,29.80,SSW,209,5.8,5.8,82,0.00,CLR,,0.53,WeatherDisplay:10.37,2013-07-27 22:33:00,
2013-07-27 18:38:00,71.2,65.4,29.81,SW,226,10.0,10.0,82,0.00,CLR,,0.53,WeatherDisplay:10.37,2013-07-27 22:38:00,
2013-07-27 18:43:00,71.3,64.8,29.81,WSW,244,11.5,11.5,80,0.00,CLR,,0.53,WeatherDisplay:10.37,2013-07-27 22:43:00,
2013-07-27 18:48:00,71.0,64.2,29.81,SW,236,8.1,8.1,79,0.00,CLR,,0.53,WeatherDisplay:10.37,2013-07-27 22:48:00,
2013-07-27 18:53:00,70.8,63.6,29.81,SW,215,11.5,11.5,78,0.00,CLR,,0.53,WeatherDisplay:10.37,2013-07-27 22:53:00,
2013-07-27 18:58:00,70.6,63.0,29.81,SSW,211,11.0,11.0,77,0.00,CLR,,0.53,WeatherDisplay:10.37,2013-07-27 22:58:00,
2013-07-27 19:03:00,70.5,62.9,29.81,WSW,255,10.4,10.4,77,0.00,CLR,,0.53,WeatherDisplay:10.37,2013-07-27 23:03:00,
2013-07-27 19:08:00,70.5,62.9,29.81,WSW,237,8.1,8.1,77,0.00,CLR,,0.53,WeatherDisplay:10.37,2013-07-27 23:08:00,
2013-07-27 19:13:00,70.4,62.8,29.82,SW,226,10.4,10.4,77,0.00,CLR,,0.53,WeatherDisplay:10.37,2013-07-27 23:13:00,
2013-07-27 19:18:00,70.4,62.8,29.82,SW,219,11.5,11.5,77,0.00,CLR,,0.53,WeatherDisplay:10.37,2013-07-27 23:18:00,
2013-07-27 19:23:00,70.2,62.6,29.82,SW,230,10.4,10.4,77,0.00,CLR,,0.53,WeatherDisplay:10.37,2013-07-27 23:23:00,
2013-07-27 19:28:00,70.0,62.5,29.82,SW,218,11.0,11.0,77,0.00,CLR,,0.53,WeatherDisplay:10.37,2013-07-27 23:28:00,
2013-07-27 19:33:00,69.8,62.6,29.82,WSW,237,9.2,9.2,78,0.00,CLR,,0.53,WeatherDisplay:10.37,2013-07-27 23:33:00,
2013-07-27 19:38:00,69.7,62.9,29.82,SW,221,8.1,8.1,79,0.00,CLR,,0.53,WeatherDisplay:10.37,2013-07-27 23:38:00,
2013-07-27 19:43:00,69.7,62.9,29.82,SSW,202,7.0,7.0,79,0.00,CLR,,0.53,WeatherDisplay:10.37,2013-07-27 23:43:00,
2013-07-27 19:48:00,69.6,62.8,29.83,WSW,238,6.0,6.0,79,0.00,CLR,,0.53,WeatherDisplay:10.37,2013-07-27 23:48:00,
2013-07-27 19:53:00,69.5,62.7,29.83,SW,225,5.8,5.8,79,0.00,CLR,,0.53,WeatherDisplay:10.37,2013-07-27 23:53:00,
2013-07-27 19:58:00,69.6,63.2,29.83,SW,225,5.0,5.0,80,0.00,CLR,,0.53,WeatherDisplay:10.37,2013-07-27 23:58:00,
2013-07-27 20:03:00,69.7,63.3,29.83,SSW,205,6.0,6.0,80,0.00,CLR,,0.53,WeatherDisplay:10.37,2013-07-28 00:03:00,
2013-07-27 20:08:00,69.7,63.3,29.83,SSW,211,5.8,5.8,80,0.00,CLR,,0.53,WeatherDisplay:10.37,2013-07-28 00:08:00,
2013-07-27 20:13:00,69.5,63.1,29.83,SSW,207,6.9,6.9,80,0.00,CLR,,0.53,WeatherDisplay:10.37,2013-07-28 00:13:00,
2013-07-27 20:18:00,69.3,63.2,29.83,SSW,213,5.8,5.8,81,0.00,CLR,,0.53,WeatherDisplay:10.37,2013-07-28 00:18:00,
2013-07-27 20:23:00,69.3,63.2,29.83,SW,221,5.0,5.0,81,0.00,CLR,,0.53,WeatherDisplay:10.37,2013-07-28 00:23:00,
2013-07-27 20:28:00,69.3,63.2,29.83,SW,217,5.0,5.0,81,0.00,CLR,,0.53,WeatherDisplay:10.37,2013-07-28 00:28:00,
2013-07-27 20:33:00,69.2,63.1,29.83,SW,236,7.0,7.0,81,0.00,CLR,,0.53,WeatherDisplay:10.37,2013-07-28 00:33:00,
2013-07-27 20:38:00,69.0,62.9,29.83,SSW,212,10.4,10.4,81,0.00,CLR,,0.53,WeatherDisplay:10.37,2013-07-28 00:38:00,
2013-07-27 20:43:00,68.9,62.8,29.82,SW,215,7.0,7.0,81,0.00,CLR,,0.53,WeatherDisplay:10.37,2013-07-28 00:43:00,
2013-07-27 20:48:00,69.0,63.3,29.82,WSW,239,7.0,7.0,82,0.00,CLR,,0.53,WeatherDisplay:10.37,2013-07-28 00:48:00,
2013-07-27 20:53:00,69.1,63.4,29.82,SW,233,6.0,6.0,82,0.00,CLR,,0.53,WeatherDisplay:10.37,2013-07-28 00:53:00,
2013-07-27 20:58:00,69.0,62.9,29.82,SSW,205,6.0,6.0,81,0.00,CLR,,0.53,WeatherDisplay:10.37,2013-07-28 00:58:00,
2013-07-27 21:03:00,68.8,62.7,29.82,WSW,253,8.1,8.1,81,0.00,CLR,,0.53,WeatherDisplay:10.37,2013-07-28 01:03:00,
2013-07-27 21:08:00,68.9,63.2,29.82,SW,227,5.8,5.8,82,0.00,CLR,,0.53,WeatherDisplay:10.37,2013-07-28 01:08:00,
2013-07-27 21:13:00,68.9,62.8,29.82,SW,217,7.0,7.0,81,0.00,CLR,,0.53,WeatherDisplay:10.37,2013-07-28 01:13:00,
2013-07-27 21:18:00,68.7,62.6,29.82,SW,236,5.0,5.0,81,0.00,CLR,,0.53,WeatherDisplay:10.37,2013-07-28 01:18:00,
2013-07-27 21:23:00,68.6,62.9,29.82,SW,235,5.8,5.8,82,0.00,CLR,,0.53,WeatherDisplay:10.37,2013-07-28 01:23:00,
2013-07-27 21:28:00,68.6,62.9,29.82,SW,222,6.0,6.0,82,0.00,CLR,,0.53,WeatherDisplay:10.37,2013-07-28 01:28:00,
2013-07-27 21:33:00,68.8,62.7,29.82,SSW,213,8.1,8.1,81,0.00,CLR,,0.53,WeatherDisplay:10.37,2013-07-28 01:33:00,
2013-07-27 21:38:00,68.7,62.6,29.82,SSW,194,6.0,6.0,81,0.00,CLR,,0.53,WeatherDisplay:10.37,2013-07-28 01:38:00,
2013-07-27 21:43:00,68.6,62.5,29.82,SW,223,8.1,8.1,81,0.00,CLR,,0.53,WeatherDisplay:10.37,2013-07-28 01:43:00,
2013-07-27 21:48:00,68.5,62.4,29.82,SSW,209,8.1,8.1,81,0.00,CLR,,0.53,WeatherDisplay:10.37,2013-07-28 01:48:00,
2013-07-27 21:53:00,68.4,62.3,29.83,WSW,254,8.1,8.1,81,0.00,CLR,,0.53,WeatherDisplay:10.37,2013-07-28 01:53:00,
2013-07-27 21:58:00,68.4,62.3,29.83,SW,229,12.0,12.0,81,0.00,CLR,,0.53,WeatherDisplay:10.37,2013-07-28 01:58:00,
2013-07-27 22:03:00,68.3,62.6,29.83,WSW,238,10.4,10.4,82,0.00,CLR,,0.53,WeatherDisplay:10.37,2013-07-28 02:03:00,
2013-07-27 22:08:00,68.0,62.3,29.83,WSW,240,7.0,7.0,82,0.00,CLR,,0.53,WeatherDisplay:10.37,2013-07-28 02:08:00,
2013-07-27 22:13:00,67.8,62.4,29.83,WSW,249,8.1,8.1,83,0.00,CLR,,0.53,WeatherDisplay:10.37,2013-07-28 02:13:00,
2013-07-27 22:18:00,67.7,62.3,29.83,SW,224,6.0,6.0,83,0.00,CLR,,0.53,WeatherDisplay:10.37,2013-07-28 02:18:00,
2013-07-27 22:23:00,67.6,62.3,29.83,SW,234,7.0,7.0,83,0.00,CLR,,0.53,WeatherDisplay:10.37,2013-07-28 02:23:00,
2013-07-27 22:28:00,67.5,62.5,29.83,SW,233,5.0,5.0,84,0.00,CLR,,0.53,WeatherDisplay:10.37,2013-07-28 02:28:00,
2013-07-27 22:33:00,67.5,62.5,29.83,SW,233,5.0,5.0,84,0.00,CLR,,0.53,WeatherDisplay:10.37,2013-07-28 02:33:00,
2013-07-27 22:38:00,67.4,62.4,29.83,West,264,7.0,7.0,84,0.00,CLR,,0.53,WeatherDisplay:10.37,2013-07-28 02:38:00,
2013-07-27 22:43:00,67.2,62.2,29.83,SW,221,5.0,5.0,84,0.00,CLR,,0.53,WeatherDisplay:10.37,2013-07-28 02:43:00,
2013-07-27 22:48:00,67.1,62.1,29.83,SW,229,5.0,5.0,84,0.00,CLR,,0.53,WeatherDisplay:10.37,2013-07-28 02:48:00,
2013-07-27 22:53:00,67.1,62.1,29.83,SW,232,4.0,4.0,84,0.00,CLR,,0.53,WeatherDisplay:10.37,2013-07-28 02:53:00,
2013-07-27 22:58:00,67.1,62.1,29.83,WSW,238,5.0,5.0,84,0.00,CLR,,0.53,WeatherDisplay:10.37,2013-07-28 02:58:00,
2013-07-27 23:03:00,67.0,62.3,29.83,SW,227,6.9,6.9,85,0.00,CLR,,0.53,WeatherDisplay:10.37,2013-07-28 03:03:00,
2013-07-27 23:08:00,67.0,62.3,29.83,SW,224,8.0,8.0,85,0.00,CLR,,0.53,WeatherDisplay:10.37,2013-07-28 03:08:00,
2013-07-27 23:13:00,66.9,62.2,29.83,SW,226,6.0,6.0,85,0.00,CLR,,0.53,WeatherDisplay:10.37,2013-07-28 03:13:00,
2013-07-27 23:18:00,66.8,62.1,29.83,SW,225,8.0,8.0,85,0.00,CLR,,0.53,WeatherDisplay:10.37,2013-07-28 03:18:00,
2013-07-27 23:23:00,66.8,62.1,29.83,SW,231,9.0,9.0,85,0.00,CLR,,0.53,WeatherDisplay:10.37,2013-07-28 03:23:00,
2013-07-27 23:28:00,66.8,62.1,29.83,SW,227,7.0,7.0,85,0.00,CLR,,0.53,WeatherDisplay:10.37,2013-07-28 03:28:00,
2013-07-27 23:33:00,66.7,62.0,29.83,SW,219,7.0,7.0,85,0.00,CLR,,0.53,WeatherDisplay:10.37,2013-07-28 03:33:00,
2013-07-27 23:38:00,66.7,62.0,29.83,SW,226,7.0,7.0,85,0.00,CLR,,0.53,WeatherDisplay:10.37,2013-07-28 03:38:00,
2013-07-27 23:43:00,66.7,62.0,29.83,SW,230,8.1,8.1,85,0.00,CLR,,0.53,WeatherDisplay:10.37,2013-07-28 03:43:00,
2013-07-27 23:48:00,66.7,62.0,29.83,SW,236,8.0,8.0,85,0.00,CLR,,0.53,WeatherDisplay:10.37,2013-07-28 03:48:00,
2013-07-27 23:53:00,66.7,62.0,29.83,WSW,237,5.0,5.0,85,0.01,RA,,0.54,WeatherDisplay:10.37,2013-07-28 03:53:00,
2013-07-27 23:58:00,66.6,62.3,29.84,SW,230,5.0,5.0,86,0.01,RA,,0.54,WeatherDisplay:10.37,2013-07-28 03:58:00,